Location: Innerellb�gen
(47.1667°N, 11.4500°E)
Time: 00:31:51
(UTC+00:00)

Daily predictions for brighter satellites

Satellite Brightness Start Highest point End
(mag) Time Altitude Azimuth Time Altitude Azimuth Time Altitude Azimuth
Cosmos 2278 Rocket 4.3 02:31:43 23° E 02:31:43 23° E 02:35:16 10° NE
USA 215 4.3 02:26:22 10° E 02:30:29 39° E 02:30:29 39° E
Cosmos 1464 Rocket 4.4 03:26:18 10° N 03:32:37 63° ENE 03:38:48 10° SSE
COSMO-SKYMED 1 4.4 03:31:55 10° SE 03:35:40 29° ENE 03:37:26 22° NNE
Gbstr 26 Del rocket 4.3 03:45:48 33° ENE 03:45:48 33° ENE 03:48:22 10° E
COSMOS 2406 3.2 03:52:20 64° SSW 03:52:20 64° SSW 03:57:17 10° SSE
Meteor 2-2 Rocket 4.3 03:53:00 66° SW 03:53:00 66° SW 03:58:05 10° S
Cosmos 2082 Rocket 2.2 03:52:50 54° N 03:54:07 77° ENE 03:59:43 10° SSE
Cosmos 2344 3.9 03:47:41 10° SSW 03:55:03 61° ESE 04:02:36 10° NE
COSMOS 2455 2.9 03:57:05 56° SW 03:57:05 56° SW 04:02:26 10° SSE
Cosmos 1891 Rocket 4.4 03:51:33 12° NNW 03:57:39 77° W 04:04:05 10° S
Cosmos 1842 Rocket 3.9 03:58:54 58° SSE 03:58:54 58° SSE 04:02:31 10° S
Cosmos 1850 Rocket 4.2 03:54:58 20° S 03:58:43 70° ESE 04:04:04 10° NNE
SL-24 R/B 4.4 03:54:19 10° NNE 03:59:38 83° ESE 04:02:34 24° S
Cosmos 1513 Rocket 4.4 04:02:47 15° NNW 04:08:05 68° W 04:14:25 10° S
MOS 1-B Rocket 4.0 04:03:27 10° SSE 04:10:12 88° ENE 04:16:08 10° NNW
Cosmos 2034 Rocket 3.9 04:07:53 10° N 04:14:08 88° E 04:20:23 10° S
Cosmos 2278 Rocket 2.1 04:13:39 54° W 04:14:31 61° WNW 04:20:10 10° NNE
Cosmos 1900 4.2 04:13:44 60° NW 04:14:38 85° WSW 04:19:40 10° SSE
USA 215 3.3 04:09:18 10° SE 04:15:44 60° SW 04:17:51 42° W
Cosmos 1782 4.5 04:13:28 10° N 04:17:05 32° ENE 04:20:40 10° SE
Cosmos 1943 Rocket 3.6 04:13:48 10° S 04:18:59 39° ESE 04:24:12 10° NE
CZ-2C R/B 2.7 04:14:35 10° SSE 04:20:08 80° ENE 04:25:37 10° NNW
BREEZE M DEB (TANK) 3.0 04:21:18 56° W 04:22:11 78° NNW 04:24:57 10° ENE
Cosmos 1072 Rocket 4.5 04:18:58 18° NNW 04:23:30 53° W 04:29:23 10° SSW
SKYMED 2 3.5 04:19:12 10° SSE 04:23:32 86° ENE 04:26:01 25° NNW
Cosmos 1816 Rocket 4.5 04:17:30 10° S 04:23:41 83° E 04:29:58 10° N
Cosmos 540 Rocket 3.5 04:25:25 48° WNW 04:26:22 56° WSW 04:31:22 10° S
Cosmos 2346 Rocket 4.4 04:23:33 10° SSW 04:29:44 63° WNW 04:36:00 10° N
Cosmos 2221 3.9 04:32:04 25° SW 04:32:04 25° SW 04:34:07 10° SSW
Cosmos 1933 3.5 04:27:43 18° N 04:30:40 71° E 04:34:38 10° SSE
Cosmos 1833 Rocket 3.9 04:34:00 24° SW 04:34:00 24° SW 04:37:15 10° SSW
Cosmos 1741 Rocket 3.9 04:30:04 13° SW 04:34:38 64° WNW 04:39:51 10° NNE
CZ-4B R/B 4.1 04:32:10 10° NNE 04:36:33 84° ESE 04:41:01 10° SSW
SL-8 R/B 3.6 04:35:06 44° W 04:36:38 86° N 04:41:27 10° ENE
Tsikada Rocket 4.0 04:30:32 10° S 04:36:41 82° E 04:42:58 10° N
Meteor 1-31 Rocket 2.7 04:34:12 10° NNE 04:38:05 85° ESE 04:41:59 10° SSW
Cosmos 2151 2.9 04:37:57 10° S 04:42:14 88° E 04:46:34 10° N
Cosmos 1634 Rocket 4.3 04:35:57 10° N 04:42:17 71° E 04:48:30 10° SSE
Cosmos 1812 3.9 04:46:14 10° N 04:49:56 43° ENE 04:53:36 10° SSE
CZ-4C R/B 2.6 04:46:52 10° SSE 04:50:05 82° W 04:51:34 29° NNW
Cosmos 841 Rocket 3.7 04:48:36 27° NW 04:50:54 44° WSW 04:55:46 10° S
H-2A R/B 3.0 04:52:25 10° SE 04:56:26 48° ENE 05:00:35 10° N
SJ-12 4.2 04:53:37 10° N 04:57:34 44° WNW 05:01:30 10° SW
Cosmos 2098 Rocket 3.8 04:54:43 10° SSE 04:57:57 45° E 05:01:52 10° NNE
Envisat 3.0 04:53:30 10° N 04:58:28 55° WNW 05:03:24 10° SSW
Genesis I 4.5 04:57:08 15° NNW 05:00:13 39° NE 05:04:04 10° ESE
Cosmos 1570 Rocket 4.0 05:01:27 13° NNW 05:06:09 62° WSW 05:11:19 10° S
YAOGAN 6 3.4 05:03:26 10° N 05:06:41 29° WNW 05:09:53 10° SW
Cosmos 1076 Rocket 4.1 05:03:27 10° SW 05:07:25 34° WNW 05:11:26 10° N
DMSP B5D2-2 4.1 05:04:06 10° SSE 05:09:20 90° ENE 05:14:35 10° NNW
Cosmos 2369 Rocket 3.5 05:04:55 10° S 05:10:09 44° ESE 05:15:27 10° NE
COSMO-SKYMED 1 3.3 05:07:54 10° SSW 05:11:46 31° W 05:14:38 16° NW
Aureole 1 Rocket 2.1 05:10:39 10° SSW 05:13:48 87° ESE 05:16:48 10° NNE
Cosmos 1867 3.6 05:10:50 14° NW 05:15:31 76° SW 05:20:57 10° SSE
Cosmos 1241 Rocket 4.4 05:10:06 12° NW 05:15:56 82° WSW 05:22:07 10° SSE
FALCON 9 DEB 3.7 05:13:34 10° SW 05:16:19 44° SE 05:19:05 10° ENE
APEX 2.5 05:16:51 25° NW 05:18:12 52° WSW 05:21:03 10° SSE
Cosmos 921 Rocket 3.1 05:14:02 10° NNW 05:18:24 80° ENE 05:22:49 10° SSE
Cosmos 2084 Rocket 3.1 05:14:46 10° SW 05:18:37 69° NW 05:22:30 10° NE
H-2A R/B 3.7 05:16:37 10° NNW 05:19:36 24° WNW 05:22:35 10° WSW
NOSS 3-2 (A) 3.3 05:14:04 10° SW 05:19:41 71° NW 05:26:15 10° NE
Cosmos 1328 Rocket 4.0 05:15:52 10° N 05:20:17 63° E 05:24:37 10° SSE
H-2A R/B 4.3 05:16:58 10° NE 05:21:07 26° E 05:25:14 10° SSE
FALCON 9 DEB 3.2 05:19:22 10° SW 05:22:10 58° SSE 05:25:00 10° ENE
NOSS 3-2 (C) 3.5 05:17:34 10° SSW 05:23:05 76° SE 05:29:32 10° NE
NOAA 12 4.3 05:18:57 10° NNE 05:24:17 77° ESE 05:29:32 10° S
FALCON 9 DEB 4.2 05:22:42 10° SSW 05:25:24 36° SE 05:28:07 10° ENE
CENTAUR R/B 2.5 05:20:26 10° SW 05:26:21 80° NW 05:33:33 10° NE
Cosmos 1151 Rocket 3.0 05:22:07 10° NNW 05:26:31 81° W 05:30:54 10° S
Cosmos 968 Rocket 3.4 05:22:02 10° SSW 05:27:13 86° WNW 05:32:24 10° NNE
CZ-4B R/B 2.5 05:26:19 10° N 05:29:58 74° WNW 05:33:31 10° SSW
Cosmos 2208 Rocket 4.3 05:25:07 10° NNW 05:30:22 49° WSW 05:35:33 10° S
Gbstr 26 Del rocket 3.3 05:28:19 16° WNW 05:31:12 49° SSW 05:35:29 10° SE
Meteor 2-6 Rocket 4.2 05:25:50 10° N 05:31:21 90° E 05:36:45 10° S
Meteor 2-3 Rocket 4.0 05:26:12 10° SW 05:31:34 44° WNW 05:37:00 10° N
Cosmos 2082 Rocket 3.6 05:34:44 13° WNW 05:37:30 18° W 05:41:06 10° SW
Meteor PRIRODA 3.8 05:37:15 10° N 05:40:45 46° WNW 05:44:13 10° SW
CZ-4B R/B 1.6 05:37:38 10° SSE 05:40:59 73° ENE 05:44:20 10° N
Cosmos 1408 Rocket 4.4 05:37:58 10° S 05:42:10 53° E 05:46:23 10° NNE
Cosmos 2297 3.9 05:36:55 10° SW 05:42:32 53° WNW 05:48:10 10° NNE
USA 238 DEB 3.6 05:44:58 10° SW 05:51:28 70° NW 05:58:23 10° NE
USA 238 3.6 05:45:04 10° SW 05:51:34 71° NW 05:58:29 10° NE
Cosmos 1782 4.1 05:50:09 10° NW 05:53:10 21° W 05:56:10 10° SW
Cosmos 1515 Rocket 3.8 05:48:48 10° N 05:53:13 77° E 05:57:34 10° SSE
CZ-2C R/B 3.1 05:52:05 10° N 05:56:39 46° WNW 06:01:18 10° SW
Cosmos 1862 3.4 05:53:08 10° SSW 05:56:59 51° WNW 06:00:51 10° N
Okean O Rocket 3.7 05:54:16 10° NNE 05:58:17 32° E 06:02:15 10° SSE
NOAA 6 4.0 05:54:10 10° NNE 05:59:18 81° WNW 06:04:25 10° SSW
Cosmos 2278 Rocket 3.8 05:56:40 10° WNW 05:59:51 15° NW 06:03:01 10° N
CZ-2C R/B 4.2 05:57:40 10° SW 06:01:02 16° W 06:04:23 10° NW
Cosmos 1943 Rocket 2.7 05:57:27 10° WSW 06:02:44 39° NW 06:08:03 10° NNE
Cosmos 1689 Rocket 4.4 06:01:27 10° ESE 06:03:27 20° ENE 06:05:28 10° NNE
Meteor 2-15 4.5 05:58:22 10° NNW 06:04:24 70° W 06:10:24 10° S
Okean 3 Rocket 3.9 06:00:56 10° SSW 06:05:19 48° WNW 06:09:44 10° N
Cosmos 1486 Rocket 4.0 06:01:10 10° SSW 06:06:27 67° WNW 06:11:45 10° NNE
